KC5DJY-13 Weather Reports


time (UTC)temp
C
wind
direction
speed
KPH
gust
KPH
rain 1hr
cm
rain 24hr
cm
rain mn
cm
humidity
%
barometer
mb
20260510055410 23 145 0.0 1.6 0.00 0.00 0.00 93 1010.1
20260510053911 23 141 1.6 6.4 0.00 0.00 0.00 93 1010.2
20260510052411 23 131 8.0 14.5 0.00 0.00 0.00 93 1010.3
20260510050910 23 148 1.6 6.4 0.00 0.00 0.00 93 1010.3
20260510045410 23 151 4.8 8.0 0.13 0.13 0.00 94 1010.5
20260510043910 23 136 4.8 9.7 0.13 0.13 0.00 94 1010.8
20260510042410 23 136 1.6 9.7 0.13 0.13 0.00 95 1010.8
20260510040910 23 151 0.0 4.8 0.13 0.13 0.00 95 1011.0
20260510035410 23 150 1.6 3.2 0.13 0.13 0.00 94 1010.9
20260510033911 24 132 0.0 3.2 0.13 0.13 0.00 94 1010.7
20260510032409 25 150 6.4 6.4 0.08 0.08 0.41 92 1010.5
20260510030910 25 153 3.2 6.4 0.00 0.00 0.00 89 1011.3
20260510025411 25 94 0.0 9.7 0.00 0.00 0.00 89 1010.5
20260510023909 25 146 3.2 9.7 0.00 0.00 0.00 88 1010.2
20260510022410 25 135 3.2 8.0 0.00 0.00 0.00 86 1010.1
20260510020911 26 151 0.0 4.8 0.00 0.00 0.00 85 1009.6
20260510015410 26 147 3.2 8.0 0.00 0.00 0.00 74 1009.0
20260510013912 26 157 1.6 8.0 0.00 0.00 0.00 70 1008.4
20260510012411 27 147 6.4 9.7 0.00 0.00 0.00 70 1008.1
20260510010910 27 143 4.8 6.4 0.00 0.00 0.00 67 1007.7
20260510005409 28 142 4.8 6.4 0.00 0.00 0.00 57 1007.3
20260510003910 28 153 4.8 6.4 0.00 0.00 0.00 55 1007.3
20260510002410 28 150 0.0 8.0 0.00 0.00 0.00 60 1007.3
20260510000910 29 155 1.6 6.4 0.00 0.00 0.00 60 1007.3
20260509235409 29 153 1.6 4.8 0.00 0.00 0.00 65 1007.0
20260509233910 29 145 3.2 6.4 0.00 0.00 0.00 66 1006.9
20260509232410 30 158 3.2 4.8 0.00 0.00 0.00 65 1006.8
20260509230909 30 149 0.0 3.2 0.00 0.00 0.00 65 1006.9
20260509225410 30 143 1.6 8.0 0.00 0.00 0.00 66 1006.8
20260509223910 31 146 3.2 4.8 0.00 0.00 0.00 65 1006.7
20260509222409 31 135 1.6 4.8 0.00 0.00 0.00 63 1006.5
20260509220910 32 157 0.0 3.2 0.00 0.00 0.00 57 1006.4
20260509215532 33 112 1.6 1.6 0.00 0.00 0.00 51 1006.4
20260509214033 33 158 0.0 1.6 0.00 0.00 0.00 43 1006.5
20260509212532 33 237 1.6 4.8 0.00 0.00 0.00 40 1006.3
20260509211032 33 354 0.0 3.2 0.00 0.00 0.00 43 1006.6
20260509210927 33 354 0.0 3.2 0.00 0.00 0.00 43 1006.6
20260509210427 33 54 0.0 3.2 0.00 0.00 0.00 43 1006.7
20260509205928 33 195 1.6 1.6 0.00 0.00 0.00 42 1006.7
20260509205444 33 254 1.6 3.2 0.00 0.00 0.00 44 1006.8
20260509204926 33 233 3.2 3.2 0.00 0.00 0.00 44 1006.8
20260509203927 33 348 0.0 4.8 0.00 0.00 0.00 46 1006.7
20260509203622 33 348 0.0 4.8 0.00 0.00 0.00 46 1006.7
20260509203119 33 202 4.8 8.0 0.00 0.00 0.00 42 1006.7
20260509202623 33 197 0.0 1.6 0.00 0.00 0.00 45 1006.8
20260509201956 33 227 0.0 1.6 0.00 0.00 0.00 47 1006.9